This is the latest recevied weather packets stored in our database for station/object CE3MXM-13. If no packets are shown the sender has not sent any weather packets the latest 1 day(s).
| Time | Temp. | Humidity | Pressure | Rain* | Wind** | Luminosity | Snow |
|---|---|---|---|---|---|---|---|
| 1778073630 | 13.33° C | 99% | 1012.3 hPa | - | - | - | - |
| 1778073330 | 12.78° C | 99% | 1012.2 hPa | - | - | - | - |
| 1778072130 | 11.11° C | 99% | 1012.1 hPa | - | - | - | - |
| 1778071530 | 9.44° C | 99% | 1012.4 hPa | - | - | - | - |
| 1778069729 | 7.78° C | 98% | 1012.2 hPa | - | - | - | - |
| 1778069129 | 7.22° C | 98% | 1012.1 hPa | - | - | - | - |
| 1778067028 | 6.67° C | 98% | 1012.2 hPa | - | - | - | - |
| 1778066728 | 6.67° C | 98% | 1011.9 hPa | - | - | - | - |
| 1778066128 | 6.67° C | 98% | 1011.7 hPa | - | - | - | - |
| 1778064327 | 6.67° C | 98% | 1011.3 hPa | - | - | - | - |
| 1778063727 | 6.67° C | 98% | 1011.4 hPa | - | - | - | - |
| 1778063127 | 6.67° C | 98% | 1011.2 hPa | - | - | - | - |
| 1778061326 | 7.22° C | 98% | 1011.1 hPa | - | - | - | - |
| 1778061026 | 7.22° C | 98% | 1011 hPa | - | - | - | - |
| 1778060126 | 7.22° C | 98% | 1010.7 hPa | - | - | - | - |
| 1778058925 | 6.67° C | 97% | 1010.7 hPa | - | - | - | - |
| 1778058627 | 6.67° C | 97% | 1010.5 hPa | - | - | - | - |
| 1778058325 | 6.67° C | 97% | 1010.5 hPa | - | - | - | - |
| 1778058025 | 6.67° C | 97% | 1010.5 hPa | - | - | - | - |
| 1778057725 | 6.67° C | 97% | 1010.4 hPa | - | - | - | - |
| 1778057425 | 7.22° C | 97% | 1010.1 hPa | - | - | - | - |
| 1778056525 | 6.67° C | 97% | 1010.2 hPa | - | - | - | - |
| 1778055924 | 6.67° C | 97% | 1009.9 hPa | - | - | - | - |
| 1778055624 | 6.67° C | 97% | 1010.1 hPa | - | - | - | - |
| 1778055025 | 7.22° C | 97% | 1010.1 hPa | - | - | - | - |
* Rain since midnight (hover to see other rain measurements)
** Current wind speed in m/s (hover to see current wind gust speed)